Preview of NWS' New Version of Forecast
This preview is not operational and should not be used for support decisions.
Latest weather observations around

Vaiden Fld Airport (KA08)

Using International System of Units (Switch to English Units)
Date/ Time (CDT) Wind (kph) Vis. (km) Weather Sky Cond. Temp (°C) Rel. Humidity Wind Chill (°C) Heat Index (°C) Pressure Precip. (cm)
Air Dwpt 6 hour Altimeter (hPa) Sea level (hPa) 1 hr 3 hr 6 hr
Max Min
May 27 23:55   16.09 Partly Cloudy SCT070 23 20     81%   24 1010.8        
May 27 21:35   16.09 Partly Cloudy SCT046 25 22     81%   26 1010.8        
May 27 21:15 Calm 16.09 Partly Cloudy SCT042 SCT050 25 23     87%   26 1010.5        
May 27 20:55 Calm 16.09 Partly Cloudy SCT042 SCT050 26 23     85%   26 1010.5        
May 27 20:35 Calm 16.09 Mostly Cloudy BKN042 BKN050 26 22     80%   28 1010.2        
May 27 20:15 Calm 16.09 Partly Cloudy SCT050 26 22     79%   28 1010.2        
May 27 19:55 Calm 16.09 Partly Cloudy SCT040 SCT050 SCT065 27 22     76%   29 1009.8        
May 27 19:35 N 5 16.09 Partly Cloudy SCT042 SCT050 SCT055 27 22     75%   29 1009.5        
May 27 19:15 NNW 5 16.09 Mostly Cloudy SCT046 BKN055 27 22     71%   30 1009.5        
May 27 18:55 NNE 5 16.09 Partly Cloudy SCT048 28 22     68%   31 1009.5        
May 27 18:35 Calm 16.09 Clear   28 21     66%   31 1009.5        
May 27 18:15 Calm 16.09 Clear   29 21     64%   31 1009.2        
May 27 17:55 E 8 16.09 Clear   29 21     64%   31 1009.2        
May 27 17:35 E 5 16.09 Mostly Cloudy BKN042 BKN049 29 21     62%   32 1009.5        
May 27 17:15 N 5 16.09 Partly Cloudy SCT044 SCT049 30 21     61%   32 1009.5        
May 27 16:55 NE 5 16.09 Clear CLR 29 21     62%   32 1009.5        
May 27 16:35   16.09 Partly Cloudy SCT043 29 20     59%   31 1009.5        
May 27 16:15 NNE 8 16.09 Clear CLR 30 20     57%   32 1009.8        
May 27 15:55   16.09 Clear CLR 30 20     55%   32 1009.8        
May 27 15:35 NE 5 16.09 Partly Cloudy SCT047 30 20     56%   32 1010.2        
May 27 15:15   16.09 Partly Cloudy SCT045 30 21     59%   32 1010.5        
May 27 14:55 E 5 16.09 Clear CLR 29 20     57%   31 1010.8        
May 27 14:35 NNE 8 16.09 Partly Cloudy SCT038 SCT046 30 20     56%   31 1011.2        
May 27 14:15 ENE 5 16.09 Partly Cloudy SCT034 SCT041 29 21     63%   32 1011.2        
May 27 13:55   16.09 Partly Cloudy SCT034 SCT040 29 21     63%   31 1011.2        
May 27 13:35 E 5 16.09 Clear CLR 29 21     64%   31 1011.5        
May 27 13:15   16.09 Clear CLR 29 21     62%   31 1011.5        
May 27 12:55   16.09 Clear CLR 29 20     61%   31 1011.9        
May 27 12:35 Calm 16.09 Clear CLR 28 20     63%   30 1011.9        
May 27 12:15   16.09 Clear CLR 28 21     67%   30 1012.2        
May 27 11:55 Calm 16.09 Partly Cloudy SCT025 27 22     72%   30 1012.5        
May 27 11:35 Calm 16.09 Partly Cloudy SCT025 28 21     68%   30 1012.9        
May 27 11:15 ESE 5 16.09 Partly Cloudy SCT020 27 22     74%   29 1012.9        
May 27 10:55 Calm 16.09 Partly Cloudy SCT018 27 22     75%   29 1013.2        
May 27 10:35   16.09 Partly Cloudy SCT016 26 22     80%   28 1012.9        
May 27 10:15 NNE 8 16.09 Clear CLR 26 23     82%   28 1012.9        
May 27 09:55   16.09 Partly Cloudy SCT009 25 22     85%   26 1012.9        
May 27 09:35   16.09 Partly Cloudy SCT006 24 23     92%   25 1012.9        
May 27 09:15   16.09 Partly Cloudy SCT006 23 23     97%   24 1013.2        
May 27 08:55 ESE 5 16.09 Partly Cloudy SCT004 23 23     100%   23 1013.2        
May 27 08:35 E 5 16.09 Partly Cloudy SCT004 22 22     100%   23 1013.2        
May 27 08:15 Calm 16.09 Partly Cloudy SCT004 22 22     100%   22 1013.2        
May 27 07:55 Calm 16.09 Partly Cloudy SCT004 21 21     100%   22 1012.9        
May 27 07:35 Calm 16.09 Partly Cloudy SCT003 21 21     100%     1012.9        
May 27 07:15 Calm 11.27 Partly Cloudy SCT003 20 20     100%     1012.9        
May 27 06:55 Calm 11.27 Clear CLR 20 20     100%     1012.5       0
May 27 06:35 Calm 8.05 Fog/Mist CLR 20 20     100%     1012.5        
May 27 06:15   6.44 Fog/Mist SCT002 20 20     100%     1012.5        
May 27 05:55 Calm 4.83 Fog/Mist BKN002 20 20     100%     1012.2        
May 27 05:35 Calm 1.61 Fog/Mist OVC002 20 20     100%     1012.2        
May 27 05:15 Calm 0.8 Fog OVC002 20 20     100%     1012.2        
May 27 04:55 Calm 1.21 Fog/Mist OVC002 20 20     100%     1012.2        
May 27 04:35 Calm 2.01 Fog/Mist OVC002 20 20     100%     1011.9        
May 27 04:15 Calm 2.82 Fog/Mist OVC002 20 20     100%     1011.9        
May 27 03:55 Calm 11.27 Mostly Cloudy BKN002 20 20     100%     1011.9     0  
May 27 03:35 SE 5 11.27 Partly Cloudy SCT002 20 20     100%     1011.5        
May 27 03:15 ESE 8 11.27 Clear CLR 20 20     100%     1011.9        
May 27 02:55 S 11 11.27 Clear CLR 20 20     100%     1011.9        
May 27 02:35 Calm 16.09 Clear CLR 20 20     100%     1011.9        
May 27 02:15 E 5 16.09 Clear CLR 20 20     100%     1011.9        
May 27 01:55 Calm 16.09 Clear CLR 20 20     100%     1012.2   0    
May 27 01:35 Calm 16.09 Clear CLR 20 20     100%     1012.2   0    
May 27 01:15 Calm 16.09 Clear CLR 20 20     100%     1012.2   0    
May 27 00:55 ESE 5 16.09 Clear CLR 20 20     100%     1012.2       1
May 27 00:35 Calm 16.09 Clear CLR 20 20     100%     1012.2        
May 27 00:15 ESE 8 16.09 Clear CLR 21 21     100%     1012.5        
May 26 23:55   16.09 Clear CLR 21 21     100%     1012.5        
May 26 23:35 Calm 16.09 Clear CLR 21 21     100%     1012.5        
May 26 23:15 Calm 16.09 Clear CLR 21 21     100%     1012.5        
May 26 22:55 Calm 16.09 Light Drizzle CLR 20 20     100%     1012.5   0    
May 26 22:35 ESE 5 16.09 Light Rain SCT090 21 21     100%     1012.5   0    
May 26 22:15 Calm 16.09 Light Rain SCT075 BKN090 BKN120 21 21     100%     1012.2   0    
May 26 21:55 SE 5 16.09 Rain SCT065 SCT085 OVC110 21 21     100%   22 1012.5   1 1  
May 26 21:35 SE 5 16.09 Cloudy SCT018 BKN065 OVC110 22 21     96%   22 1012.5   1    
May 26 21:15 S 18 4.02 Rain SCT014 BKN020 OVC041 22 21     96%   22 1012.5   1    
May 26 20:55   16.09 Mostly Cloudy SCT020 SCT027 BKN047 24 20     81%   24 1012.2        
May 26 20:35 Calm 16.09 Clear CLR 24 23     95%   25 1011.2        
May 26 20:15 Calm 16.09 Clear CLR 24 24     98%   25 1011.2        
May 26 19:55 Calm 16.09 Clear CLR 24 24     97%   25 1011.2        
May 26 19:35 Calm 16.09 Clear CLR 24 24     98%   26 1010.8        
May 26 19:15 Calm 16.09 Clear CLR 25 23     92%   26 1010.8        
May 26 18:55 Calm 16.09 Clear CLR 25 23     87%   26 1010.8        
May 26 18:35 Calm 16.09 Clear CLR 25 23     88%   26 1010.8        
May 26 18:15 Calm 16.09 Clear CLR 25 23     89%   26 1010.5        
May 26 17:55 Calm 16.09 Clear CLR 26 23     86%   26 1010.5        
May 26 17:35 W 5 16.09 Partly Cloudy SCT031 SCT039 SCT047 26 23     86%   28 1010.5        
May 26 17:15 Calm 16.09 Cloudy SCT032 BKN040 OVC047 26 23     86%   28 1010.5        
May 26 16:55 WNW 9 16.09 Mostly Cloudy BKN041 26 23     83%   29 1010.5        
May 26 16:35 Calm 16.09 Clear CLR 27 21     71%   29 1010.5        
May 26 16:15 Calm 16.09 Clear CLR 27 22     71%   30 1010.5        
May 26 15:55 Calm 16.09 Partly Cloudy SCT049 28 21     68%   30 1010.5        
May 26 15:35 Calm 11.27 Clear CLR 28 21     66%   30 1010.8        
May 26 15:15 Calm 16.09 Partly Cloudy SCT033 28 21     67%   30 1010.8        
May 26 14:55 SE 8 16.09 Mostly Cloudy BKN033 BKN040 28 21     67%   30 1010.8        
May 26 14:35 Calm 16.09 Mostly Cloudy BKN033 BKN040 28 21     67%   30 1011.2        
May 26 14:15 Calm 16.09 Mostly Cloudy BKN029 BKN037 29 22     66%   32 1011.9        
May 26 13:55 Calm 16.09 Mostly Cloudy BKN029 BKN037 BKN042 28 22     68%   31 1011.9        
May 26 13:35 ESE 5 16.09 Cloudy BKN027 BKN040 OVC047 28 22     71%   30 1012.2        
May 26 13:15 SE 5 16.09 Mostly Cloudy SCT027 BKN032 BKN038 27 22     71%   30 1012.5        
May 26 12:55   16.09 Partly Cloudy SCT027 SCT034 28 22     69%   31 1012.9        
May 26 12:35 Calm 16.09 Mostly Cloudy SCT025 BKN035 BKN070 28 22     71%   30 1012.9        
May 26 12:15 Calm 16.09 Mostly Cloudy SCT023 BKN032 26 21     72%   28 1013.2        
May 26 11:55   16.09 Partly Cloudy SCT023 SCT031 27 22     73%   29 1013.6        
May 26 11:35   16.09 Mostly Cloudy SCT019 BKN031 27 21     73%   28 1013.9        
May 26 11:15   16.09 Partly Cloudy SCT029 26 22     77%   28 1013.9        
May 26 10:55 Calm 16.09 Partly Cloudy SCT018 26 22     79%   26 1014.2        
May 26 10:35 Calm 16.09 Clear CLR 25 21     79%   26 1014.2        
May 26 10:15 Calm 16.09 Partly Cloudy SCT011 SCT017 25 22     84%   26 1014.2        
May 26 09:55 Calm 16.09 Mostly Cloudy SCT011 BKN017 24 22     89%   25 1014.6        
May 26 09:35   16.09 Partly Cloudy SCT007 SCT015 23 23     95%   24 1014.6        
May 26 09:15   16.09 Mostly Cloudy BKN007 BKN120 23 23     99%   24 1014.6        
May 26 08:55 SW 9 16.09 Mostly Cloudy BKN007 BKN120 22 22     99%   23 1014.6        
May 26 08:35 SSW 13 16.09 Cloudy OVC005 22 22     100%   23 1014.6        
May 26 08:15   16.09 Cloudy OVC003 21 21     100%     1014.2        
May 26 07:55 SSE 5 11.27 Cloudy OVC001 21 21     100%     1014.2        
May 26 07:35 S 15 8.05 Fog/Mist OVC001 21 21     100%     1013.9        
May 26 07:15   4.83 Fog/Mist OVC001 20 20     100%     1013.9        
May 26 06:55 W 13 2.82 Fog/Mist OVC001 20 20     100%     1013.6       0
May 26 06:35 W 17 16.09 Cloudy OVC001 20 20     100%     1013.6        
May 26 06:15 Calm 2.82 Fog/Mist OVC001 20 20     100%     1013.2        
May 26 05:55 Calm 3.22 Fog/Mist OVC003 20 20     100%     1012.5        
May 26 05:35 S 9 0.8 Fog OVC003 20 20     100%     1012.9        
May 26 05:15 Calm 1.61 Fog/Mist OVC003 20 20     100%     1012.5        
May 26 04:55 Calm 0.4 Fog OVC003 20 20     100%     1012.5        
May 26 04:35 Calm 0.4 Fog OVC003 20 20     100%     1012.5        
May 26 04:15 Calm 0.4 Fog OVC003 20 20     100%     1012.5        
May 26 03:55   0.4 Fog OVC003 20 20     100%     1012.5   0 0  
May 26 03:35 Calm 0.4 Fog OVC003 20 20     100%     1012.5        
May 26 03:15   0.4 Fog OVC003 21 21     100%     1012.5        
May 26 02:55   0.8 Fog OVC003 21 21     100%     1012.5        
May 26 02:35   11.27 Cloudy OVC003 21 21     100%     1012.5        
May 26 02:15 SSE 8 16.09 Mostly Cloudy BKN003 21 21     100%     1012.5        
May 26 01:55 Calm 16.09 Partly Cloudy SCT003 21 21     100%     1012.5        
May 26 01:35 Calm 16.09 Partly Cloudy SCT003 SCT110 21 21     100%   22 1012.9        
May 26 01:15 Calm 16.09 Partly Cloudy SCT010 SCT120 21 21     100%   22 1013.2        
May 26 00:55 Calm 16.09 Mostly Cloudy SCT010 BKN013 BKN120 21 21     100%   22 1013.6       0
May 26 00:35 Calm 16.09 Cloudy OVC013 21 21     100%   22 1013.9        
May 26 00:15 Calm 16.09 Cloudy OVC011 21 21     100%   22 1013.9        
May 25 23:55 Calm 16.09 Cloudy OVC009 21 21     100%   22 1013.9        
May 25 23:35 Calm 16.09 Mostly Cloudy BKN009 21 21     100%     1013.9        
May 25 23:15 W 15 11.27 Partly Cloudy SCT120 21 21     100%   22 1013.6        
May 25 22:55 Calm 16.09 Clear CLR 22 22     100%   23 1013.6        
May 25 22:35 Calm 16.09 Clear CLR 22 22     100%   23 1013.9        
May 25 22:15 Calm 16.09 Clear CLR 22 22     100%   23 1013.9        
May 25 21:55 Calm 16.09 Clear CLR 22 22     100%   23 1013.9     0  
May 25 21:35 Calm 16.09 Light Rain SCT080 22 22     100%   23 1013.9        
May 25 21:15 Calm 16.09 Light Rain SCT065 BKN080 BKN110 22 22     100%   23 1014.2        
May 25 20:55 Calm 16.09 Light Rain SCT085 OVC110 22 22     100%   23 1014.2   0    
May 25 20:35 Calm 16.09 Light Rain BKN110 22 22     100%   23 1014.2   0    
May 25 20:15 Calm 16.09 Light Rain SCT120 23 23     100%   24 1014.2   0    
May 25 19:55 Calm 16.09 Drizzle SCT110 22 22     100%   23 1013.9   0    
May 25 19:35 SW 8 16.09 Light Rain SCT060 SCT070 BKN110 22 22     100%   23 1013.9        
May 25 19:15 S 8 16.09 Light Rain SCT060 SCT070 BKN110 23 23     99%   24 1013.9        
May 25 18:55 SSE 5 16.09 Partly Cloudy SCT050 SCT075 SCT090 23 23     99%   24 1013.2       0
May 25 18:35 SSE 5 16.09 Clear CLR 23 23     98%   24 1012.9        
May 25 18:15 SSE 5 16.09 Clear CLR 23 23     100%   24 1012.9        
May 25 17:55 SSE 11 16.09 Clear CLR 23 23     99%   24 1012.9   0    
May 25 17:35 SE 5 16.09 Partly Cloudy SCT033 SCT043 SCT055 23 23     97%   24 1012.5   0    
May 25 17:15 SE 8 16.09 Light Rain SCT050 BKN065 OVC110 23 22     99%   24 1013.2   0    
May 25 16:55 E 5 16.09 Rain SCT065 OVC095 22 22     98%   23 1013.2   0    
May 25 16:35   8.05 Rain SCT060 SCT070 OVC085 22 22     98%   23 1013.6   0    
May 25 16:15 Calm 16.09 Light Rain SCT060 BKN070 OVC085 23 21     92%   23 1013.9        
May 25 15:55 E 8 16.09 Cloudy SCT060 BKN070 OVC095 23 21     88%   24 1013.9        
May 25 15:35 ESE 15 16.09 Mostly Cloudy SCT040 SCT050 BKN065 23 21     86%   24 1013.9        
May 25 15:15 E 17 16.09 Cloudy SCT027 OVC036 24 20     80%   24 1013.9        
May 25 14:55   16.09 Mostly Cloudy BKN038 BKN047 BKN060 29 22     66%   32 1013.9        
May 25 14:35 Calm 16.09 Mostly Cloudy BKN038 BKN085 29 21     63%   31 1013.9        
May 25 14:15 Calm 16.09 Mostly Cloudy BKN038 30 21     60%   33 1013.9        
May 25 13:55 Calm 16.09 Mostly Cloudy SCT034 BKN039 BKN060 29 21     62%   32 1013.9        
May 25 13:35 Calm 16.09 Mostly Cloudy BKN030 BKN040 BKN047 28 22     68%   31 1014.6        
May 25 13:15 WSW 5 16.09 Mostly Cloudy SCT030 BKN047 29 22     67%   32 1014.9        
May 25 12:55 Calm 16.09 Partly Cloudy SCT028 SCT037 SCT048 29 22     69%   32 1015.2        
May 25 12:35 Calm 16.09 Mostly Cloudy SCT026 SCT037 BKN047 28 22     71%   31 1015.6        
May 25 12:15 Calm 16.09 Partly Cloudy SCT028 SCT037 SCT046 28 22     68%   31 1015.6        
May 25 11:55 S 5 16.09 Partly Cloudy SCT024 SCT032 SCT039 28 22     68%   31 1015.9        
May 25 11:35 SE 5 16.09 Mostly Cloudy SCT024 BKN032 BKN039 28 23     74%   31 1016.3        
May 25 11:15 Calm 16.09 Clear CLR 28 22     71%   30 1016.6        
May 25 10:55 Calm 16.09 Clear CLR 27 22     74%   29 1016.6        
May 25 10:35 Calm 16.09 Clear CLR 26 22     78%   28 1016.6        
May 25 10:15 Calm 16.09 Clear CLR 26 22     81%   26 1016.9        
May 25 09:55   16.09 Clear CLR 25 22     84%   26 1016.9        
May 25 09:35   16.09 Clear CLR 25 23     90%   25 1016.9        
May 25 09:15   16.09 Clear CLR 24 23     90%   25 1016.9        
May 25 08:55   16.09 Clear CLR 24 23     95%   25 1016.9        
May 25 08:35   16.09 Clear CLR 24 23     96%   24 1016.9        
May 25 08:15 Calm 16.09 Clear CLR 22 22     100%   23 1017.3        
May 25 07:55 Calm 16.09 Clear CLR 22 22     100%   23 1017.3        
May 25 07:35 Calm 16.09 Clear CLR 21 21     100%   22 1016.9        
May 25 07:15 Calm 16.09 Clear CLR 21 21     100%     1016.9        
May 25 06:55 Calm 16.09 Clear CLR 20 20     100%     1016.6        
May 25 06:35 Calm 16.09 Clear CLR 20 20     100%     1016.6        
May 25 06:15 ESE 5 11.27 Clear CLR 20 20     100%     1016.6        
May 25 05:55 Calm 16.09 Clear CLR 20 20     100%     1016.3        
May 25 05:35 Calm 16.09 Clear CLR 20 20     100%     1015.9        
May 25 05:15 Calm 11.27 Clear CLR 20 20     100%     1015.9        
May 25 04:55 Calm 11.27 Clear CLR 20 20     100%     1015.9        
May 25 04:35 Calm 11.27 Partly Cloudy SCT001 20 20     100%     1015.9        
May 25 04:15 Calm 4.02 Fog/Mist OVC001 20 20     100%     1015.9        
May 25 03:55 Calm 6.44 Fog/Mist BKN001 20 20     100%     1015.9        
May 25 03:35 Calm 11.27 Mostly Cloudy BKN001 20 20     100%     1015.9        
May 25 03:15 Calm 8.05 Fog/Mist BKN001 BKN120 20 20     100%     1015.9        
May 25 02:55 Calm 4.02 Fog/Mist OVC001 20 20     100%     1015.9        
May 25 02:35 Calm 1.21 Fog/Mist OVC001 20 20     100%     1016.3        
May 25 02:15 Calm 0.8 Fog OVC001 20 20     100%     1016.6        
May 25 01:55 Calm 2.82 Fog/Mist OVC001 21 21     100%     1016.6        
May 25 01:35 Calm 2.41 Fog/Mist OVC001 21 21     100%     1016.6        
May 25 01:15 Calm 8.05 Fog/Mist BKN003 21 21     100%     1016.9        
May 25 00:55 Calm 4.83 Fog/Mist BKN003 BKN008 BKN120 21 21     100%     1017.3       0
May 25 00:35 NNE 5 8.05 Fog/Mist SCT003 BKN010 BKN120 21 21     100%     1017.6        
May 25 00:15 Calm 11.27 Mostly Cloudy SCT003 BKN010 21 21     100%     1018        
Notice The following observation data may not be complete
May 15 12:15   16.09 Partly Cloudy SCT075          %              
May 15 07:35 ESE 8 16.09 Clear CLR 22 19     83%   22 1014.6        
May 15 04:35 E 5 16.09 Clear   20 19     93%     1013.9        
May 15 00:35   16.09 Clear CLR 22 19     82%   23 1013.2        
May 14 23:55 SSE 5 16.09 Clear CLR 23 19     76%   24 1013.6        
May 13 20:35 Calm 16.09 Clear CLR 25 19     68%   26 1016.3        
May 13 15:35 NNW 5 16.09 Partly Cloudy SCT070 33 16     36%   33 1016.9        
May 13 15:15 W 11 16.09 Clear CLR 33 16     36%   33 1017.3        
May 13 14:35 N 9 16.09 Clear CLR 33 16     35%   33 1018        
May 13 08:15 NNW 9 16.09 Clear CLR 25 18     67%   25 1020        
May 13 06:15 Calm 16.09 Clear CLR 16 16     99%     1019.3        
May 13 04:55 Calm 16.09 Clear CLR 16 16     100%     1018        
May 12 21:35 Calm 16.09 Clear CLR 22 15     65%   22 1018.6        
May 12 17:15 SE 5 16.09 Clear CLR 32 12     30%   31 1018        
May 12 15:55 SSE 15 16.09 Clear   32 12     29%   31 1018.6        
May 12 05:35 Calm 16.09 Clear CLR 14 14     99%     1020        
May 12 01:55 Calm 16.09 Clear CLR 17 16     97%     1018.3        
Notice The following observation data may not be complete
May 12 00:35   16.09 Clear CLR          %              
May 11 23:55 SSW 13 16.09 Clear CLR 19 16     84%     1019        
May 11 22:15 Calm 16.09 Clear CLR 21 17     78%     1018.6        
Notice The following observation data may not be complete
May 11 11:15   16.09 Clear CLR          %              
Jun 11 22:55   16.09 Clear CLR 23 23     100%   24 1019.7        
Notice The following observation data may not be complete
Jun 11 18:15   11.27 Light Rain SCT046 SCT065 OVC110          %         0    
Notice The following observation data may not be complete
Jun 11 17:35   16.09 Light Rain SCT027 SCT032 OVC048   22      %     1018.3        
Jun 11 16:55 ESE 11 16.09 Mostly Cloudy BKN048 BKN055 31 21     55%   35 1017.3        
Jun 11 15:15 E 11 16.09 Partly Cloudy SCT050 31 20     52%   34 1018.3        
Notice The following observation data may not be complete
Jun 11 14:35   16.09 Mostly Cloudy BKN050          %              
Jun 11 10:15 SSE 17 16.09 Clear CLR 28 19     60%   29 1020.3        
Jun 10 10:15 SSE 5 16.09 Clear CLR 27 19     64%   28 1018        
Jun 10 08:55   0.4 Cloudy OVC080 24 20     76%   25 1018        
Jun 10 08:35 Calm 0.4 Cloudy OVC080 23 20     81%   24 1017.6        
Jun 10 03:55 Calm 16.09 Partly Cloudy SCT075 18 18     100%     1015.2        
Jun 10 02:35 Calm 16.09 Cloudy SCT065 OVC075 18 18     100%     1015.2        
Jun 10 01:55 S 11 16.09 Cloudy OVC075 18 18     97%     1015.2        
Notice The following observation data may not be complete
Jun 09 23:35   16.09 Clear CLR          %              
Notice The following observation data may not be complete
Jun 09 20:35   16.09 Clear CLR          %              
Jun 09 16:15 Calm 16.09 Clear CLR 28 14     43%   28 1013.2        
Jun 09 11:35   16.09 Clear CLR 26 15     51%   26 1015.2        
Jun 09 03:35 Calm 16.09 Clear CLR 15 15     97%     1012.2        
Jun 09 02:55 WNW 5 16.09 Clear   16 15     99%     1012.5        
Jun 09 02:35 Calm 16.09 Clear CLR 16 15     97%     1012.5        
Jun 09 00:15 NNW 9 16.09 Clear CLR 18 15     83%     1012.9        
Jun 08 23:55 NNW 5 16.09 Clear CLR 18 16     85%     1012.9        
Jun 08 16:50 NW 9 16.09 Clear CLR 27 14     45%   26 1011.2        
Jun 08 13:30 WNW 18 16.09 Partly Cloudy SCT050 26 15     50%   26 1012.5        
Jun 08 07:55 N 5 16.09 Clear   19 14     71%     1013.2        
Jun 08 03:15 N 9 16.09 Clear CLR 18 13     73%     1010.5        
Jun 07 17:50   16.09 Clear CLR 28 15     47%   28 1008.8        
Jun 07 08:15 N 11 16.09 Clear CLR 22 18     78%   22 1008.8        
Jun 06 14:55 NE 5 16.09 Rain SCT005 BKN047 OVC070 21 21     99%   22 1006.4   2    
Jun 06 09:15   16.09 Cloudy OVC005 24 23     94%   25 1008.1        
Jun 05 19:35 SSE 8 16.09 Light Rain SCT050 SCT065 BKN095 21 21     99%     1008.1   0